This is the latest recevied weather packets stored in our database for station/object K8GLX. If no packets are shown the sender has not sent any weather packets the latest 10 day(s).
| Time | Temp. | Humidity | Pressure | Rain* | Wind** | Luminosity | Snow |
|---|---|---|---|---|---|---|---|
| 1777735028 | 5° C | 65% | 1017.5 hPa | 0 mm | - | 221 W/m² | - |
| 1777734863 | 4.44° C | 65% | 1017.5 hPa | 0 mm | - | 209 W/m² | - |
| 1777734429 | 4.44° C | 66% | 1017.7 hPa | 0 mm | - | 187 W/m² | - |
| 1777734134 | 5° C | 66% | 1017.5 hPa | 0 mm | - | 172 W/m² | - |
| 1777733829 | 5° C | 68% | 1017.4 hPa | 0 mm | - | 164 W/m² | - |
| 1777733535 | 4.44° C | 68% | 1017.5 hPa | 0 mm | - | 160 W/m² | - |
| 1777733229 | 4.44° C | 70% | 1017.3 hPa | 0 mm | - | 154 W/m² | - |
| 1777733063 | 4.44° C | 70% | 1017.3 hPa | 0 mm | - | 150 W/m² | - |
| 1777732629 | 4.44° C | 70% | 1017.2 hPa | 0 mm | - | 171 W/m² | - |
| 1777732335 | 4.44° C | 70% | 1017.3 hPa | 0 mm | - | 186 W/m² | - |
| 1777732029 | 4.44° C | 73% | 1017.2 hPa | 0 mm | - | 193 W/m² | - |
| 1777731735 | 4.44° C | 73% | 1017.4 hPa | 0 mm | - | 169 W/m² | - |
| 1777731429 | 3.89° C | 75% | 1017.3 hPa | 0 mm | - | 154 W/m² | - |
| 1777731135 | 3.89° C | 77% | 1017.2 hPa | 0 mm | - | 159 W/m² | - |
| 1777730831 | 3.89° C | 77% | 1017.1 hPa | 0 mm | - | 141 W/m² | - |
| 1777730535 | 3.33° C | 77% | 1017.3 hPa | 0 mm | - | 117 W/m² | - |
| 1777730229 | 3.33° C | 78% | 1017.1 hPa | 0 mm | - | 111 W/m² | - |
| 1777730061 | 3.33° C | 78% | 1017.2 hPa | 0 mm | - | 133 W/m² | - |
| 1777729629 | 3.33° C | 78% | 1017.3 hPa | 0 mm | - | 100 W/m² | - |
| 1777729335 | 3.33° C | 78% | 1017.1 hPa | 0 mm | - | 83 W/m² | - |
| 1777729029 | 3.33° C | 79% | 1017 hPa | 0 mm | - | 80 W/m² | - |
| 1777728862 | 3.33° C | 78% | 1017.4 hPa | 0 mm | - | 79 W/m² | - |
| 1777728429 | 3.33° C | 78% | 1017.3 hPa | 0 mm | - | 76 W/m² | - |
| 1777728135 | 3.33° C | 77% | 1017.2 hPa | 0 mm | - | 73 W/m² | - |
| 1777727829 | 3.89° C | 78% | 1017.2 hPa | 0 mm | - | 81 W/m² | - |
* Rain latest hour (hover to see other rain measurements)
** Current wind speed in m/s (hover to see current wind gust speed)